SCP
-0 -0 0 -0 0 0 0 0 0 0 0 0 0 0 0 0 0 0 -0 0 0 0 0 -0 -0 -0 -0 -0 -0 -0 0 0 0 -0 -0 -0 0 -0 -0 -0 0 0 0 0 0 -0 -0 -0 -0
0 0 0 0 0 0 0 0 0 -0 0 0 0 0 0 0 0 0 0 0 0 0 0 -0 -0 -0 -0 -0 -0 -0 0 0 0 0 0 0 0 -0 -0 0 0 0 0 -0 -0 -0 -0 -0 -0
0 0 0 0 0 0 0 0 0 0 0 0 0 0 0 0 0 0 0 0 0 0 0 0 0 -0 -0 -0 -0 -0 0 0 0 0 0 0 0 0 -0 0 0 0 0 -0 -0 -0 -0 0 0
0 0 0 0 0 0 0 0 0 0 0 0 0 0 0 0 0 0 0 0 0 0 0 0 0 -0 0 0 0 0 0 0 0 0 0 0 0 0 0 0 0 0 0 0 0 0 0 0 0
0 0 0 0 0 0 0 -0 -0 -0 0 0 -0 0 0 0 0 0 0 0 0 0 0 0 0 0 0 0 0 0 0 0 0 0 0 0 0 0 0 0 0 0 0 0 0 0 0 0 0
0 0 0 0 0 0 -0 -0 0 0 -0 0 0 0 0 0 0 0 0 0 0 0 0 0 0 0 0 0 0 0 0 0 0 0 0 0 0 0 0 0 0 0 0 0 0 0 0 0 0
0 0 0 0 -0 -0 0 0 0 0 0 0 0 0 -0 0 0 0 0 0 0 0 0 0 0 0 0 0 0 0 0 0 0 0 0 0 0 0 0 0 0 0 0 0 0 0 0 0 0
0 0 0 0 0 -0 0 0 0 0 -0 0 0 0 -0 0 0 0 0 0 0 0 0 0 0 0 0 0 0 0 0 0 0 0 0 0 0 0 0 0 0 0 0 0 0 0 0 0 0
0 0 0 0 0 -0 0 0 0 0 0 0 0 0 0 0 0 0 0 0 0 0 0 0 0 0 0 0 0 0 0 0 0 0 0 0 0 0 0 0 0 0 0 0 0 0 0 0 0
0 0 0 0 0 0 0 0 0 0 0 0 0 0 0 0 0 0 0 0 0 0 0 0 0 0 0 0 0 0 0 0 0 0 0 0 0 0 0 0 0 0 0 0 0 0 0 0 0
0 0 0 0 0 0 0 0 0 0 0 0 0 0 0 0 0 0 0 0 0 0 0 0 0 0 0 0 0 0 0 0 0 0 0 0 0 0 0 0 0 0 0 0 0 0 0 0 0
0 0 0 0 0 0 0 0 0 0 0 0 0 0 0 0 0 0 0 0 0 0 0 0 0 0 0 0 0 0 0 0 0 0 0 0 0 0 0 0 0 0 0 0 0 0 0 0 0
0 0 0 0 0 0 0 0 0 0 0 0 0 0 0 0 0 0 0 0 0 0 0 0 0 0 0 0 0 0 0 0 0 0 0 0 0 0 0 0 0 0 0 0 0 0 0 0 0
0 0 0 0 0 0 0 0 0 0 0 0 0 0 0 0 0 0 0 0 0 0 0 0 0 0 0 0 0 0 0 0 0 0 0 0 0 0 0 0 0 0 0 0 0 0 0 0 0
0 0 0 0 0 0 0 0 0 0 0 0 0 0 0 0 0 0 0 0 0 0 0 0 0 0 0 0 0 0 0 0 0 0 0 0 0 0 0 0 0 0 0 0 0 0 0 0 0
0 0 0 0 0 0 0 0 0 0 0 0 0 0 0 0 0 0 0 0 0 0 0 0 0 0 0 0 0 0 0 0 0 0 0 0 0 0 0 0 0 0 0 0 0 0 0 0 0
0 0 0 0 0 0 0 0 0 0 0 0 0 0 0 0 0 0 0 0 0 0 0 0 0 0 0 0 0 0 0 0 0 0 0 0 0 0 0 0 0 0 0 0 0 0 0 0 0
0 0 0 0 0 0 0 0 0 0 0 0 0 0 0 0 0 0 0 0 0 0 0 0 0 0 0 0 0 0 0 0 0 0 0 0 0 0 0 0 0 0 0 0 0 0 0 0 0
0 0 0 0 0 0 0 0 0 0 0 0 0 0 0 0 0 0 0 0 0 0 0 0 0 0 0 0 0 0 0 0 0 0 0 0 0 0 0 0 0 0 0 0 0 0 0 0 0
0 0 0 0 0 0 0 0 0 0 0 0 0 0 0 0 0 0 0 0 0 0 0 0 0 0 0 0 0 0 0 0 0 0 0 0 0 0 0 0 0 0 0 0 0 0 0 0 0
0 0 0 0 0 0 0 0 0 0 0 0 0 0 0 0 0 0 0 0 0 0 0 0 0 0 0 0 0 0 0 0 0 0 0 0 0 0 0 0 0 0 0 0 0 0 0 0 0
0 0 0 0 0 0 0 0 0 0 0 0 0 0 0 0 0 0 0 0 0 0 0 0 0 0 0 0 0 0 0 0 0 0 0 0 0 0 0 0 0 0 0 0 0 0 0 0 0
0 0 0 0 0 0 0 0 -0 0 0 0 0 0 0 0 0 0 0 0 0 0 0 0 0 0 0 0 0 0 0 0 0 0 0 0 0 0 0 0 0 0 0 0 0 0 0 0 0
0 0 0 0 0 0 0 0 0 0 0 0 0 0 0 0 0 0 0 0 0 0 0 0 0 0 0 0 0 0 0 0 0 0 0 0 0 0 0 0 0 0 0 0 0 0 0 0 0
0 0 0 0 0 0 0 0 0 0 0 0 0 0 0 0 0 0 0 0 0 0 0 0 0 0 0 0 0 0 0 0 0 0 0 0 0 0 0 0 0 0 0 0 0 0 0 0 0
0 0 0 0 0 0 0 0 0 0 0 0 0 0 0 0 0 0 0 0 0 0 0 0 0 0 0 0 0 0 0 0 0 0 0 0 0 0 0 0 0 0 0 0 0 0 0 0 0
0 0 0 0 0 0 0 0 0 0 0 0 0 0 0 0 0 0 0 0 0 0 0 0 0 0 0 0 0 0 0 0 0 0 0 0 0 0 0 0 0 0 0 0 0 0 0 0 0
0 0 0 0 0 0 0 0 0 0 0 0 0 0 0 0 0 0 0 0 0 0 0 0 0 0 0 0 0 0 0 0 0 0 0 0 0 0 0 0 0 0 0 0 0 0 0 0 0
0 0 0 0 0 0 0 0 0 0 0 0 0 0 0 0 0 0 0 0 0 0 0 0 0 0 0 0 0 0 0 0 0 0 0 0 0 0 0 0 0 0 0 0 0 0 0 0 0
0 0 0 0 0 0 0 0 0 0 0 0 0 0 0 0 0 0 0 0 0 0 0 0 0 0 0 0 0 0 0 0 0 0 0 0 0 0 0 0 0 0 0 0 0 0 0 0 0
Wind_Speed_500mb
24 19 14 13 6 9 20 22 23 15 8 14 10 14 19 25 10 2 11 20 22 25 29 41 46 49 48 47 43 39 35 32 30 28 25 22 20 18 16 16 16 15 14 13 10 8 8 6 4
19 8 13 12 10 18 17 28 35 19 16 12 2 9 21 13 26 8 12 17 27 26 29 40 47 50 49 47 45 42 39 36 32 29 26 23 21 19 17 16 16 15 13 10 11 9 6 4 4
18 11 9 7 19 29 27 34 30 14 7 8 4 17 16 12 2 7 10 13 28 29 27 41 46 51 50 48 46 45 42 38 33 29 26 23 22 20 20 24 19 17 19 21 18 15 12 14 16
2 9 15 12 35 35 32 22 20 27 2 4 12 13 27 24 7 11 12 15 30 33 33 41 48 53 53 50 45 44 44 40 33 26 27 26 26 28 24 24 22 22 23 22 21 21 21 22 22
13 12 14 19 44 38 37 52 57 40 32 20 27 19 40 20 29 25 25 18 28 36 40 43 50 55 55 53 49 46 46 41 35 35 37 34 34 30 26 25 25 25 26 27 27 26 26 26 23
11 12 14 24 43 37 40 64 52 47 56 41 33 32 37 29 30 30 31 26 31 38 43 45 48 58 58 56 53 48 47 43 41 44 41 39 29 29 29 28 29 30 31 32 31 30 29 24 18
11 15 26 34 41 43 41 50 30 34 35 36 51 27 62 43 45 44 34 33 35 40 45 48 49 58 60 59 54 52 51 50 53 48 43 40 29 32 33 33 33 33 35 34 33 29 25 19 15
17 8 27 29 39 67 40 45 60 51 37 52 38 18 35 43 36 42 36 35 36 43 46 52 50 62 66 64 60 59 55 56 55 52 49 37 33 35 36 36 35 36 35 33 30 22 19 16 13
22 10 23 40 45 59 47 37 60 49 41 43 51 43 42 19 28 39 38 38 41 50 57 59 54 64 72 72 69 65 62 60 59 57 54 40 39 39 39 40 39 37 33 31 26 22 19 16 14
18 16 30 35 38 41 45 34 46 44 40 28 52 42 44 41 28 32 41 47 50 59 65 65 60 64 76 72 72 71 68 66 65 61 56 45 45 43 42 42 37 35 33 30 26 24 21 20 18
25 31 29 36 52 59 52 47 47 36 32 50 36 49 56 62 60 58 57 51 53 60 68 71 69 71 76 80 77 75 74 72 68 66 58 49 50 48 47 40 37 36 34 31 28 25 23 21 19
40 45 43 46 54 56 41 57 42 49 52 61 65 64 66 51 65 70 68 63 56 59 71 76 73 80 82 83 82 79 79 77 75 72 61 56 59 53 47 40 39 38 36 34 29 27 24 21 21
40 35 55 57 62 52 58 45 49 65 64 67 71 76 71 71 58 60 60 60 56 64 70 78 73 81 85 87 84 84 84 82 81 74 65 63 62 54 49 46 44 41 38 35 31 29 25 24 23
31 33 38 47 47 49 46 46 47 60 44 72 86 88 67 69 76 60 52 61 65 65 74 79 78 71 87 92 88 90 89 87 85 78 70 63 60 56 55 50 47 42 39 37 35 31 29 28 24
49 39 36 37 31 30 30 48 56 78 67 75 69 73 74 81 71 75 79 69 75 72 74 79 82 77 80 99 95 92 89 86 82 76 69 62 60 58 58 54 49 46 41 39 37 33 29 27 26
23 28 33 12 37 47 33 62 17 38 44 65 76 84 77 75 69 73 81 81 75 78 81 81 87 85 81 85 96 95 91 89 81 76 70 64 64 62 61 57 52 48 45 40 37 34 33 30 27
25 30 33 35 36 27 30 52 18 38 38 32 56 64 68 70 71 72 78 79 78 78 83 84 91 93 92 92 94 93 92 89 82 77 72 66 67 66 64 59 54 51 46 43 40 37 33 30 27
24 44 35 45 19 32 38 61 36 41 56 50 56 56 54 55 62 61 63 70 76 82 79 88 93 98 94 95 96 93 91 88 82 77 72 68 70 69 65 61 56 52 49 46 42 38 35 31 28
44 40 44 44 22 20 39 49 42 28 42 39 55 64 74 80 86 74 71 75 78 80 84 90 97 101 99 103 107 104 102 95 89 83 78 73 72 72 68 62 60 56 51 47 44 40 35 33 31
45 49 56 57 32 25 40 49 40 29 28 52 61 73 76 78 81 85 90 84 81 85 89 91 102 105 105 108 110 107 104 99 96 90 85 77 74 74 71 68 63 59 55 51 47 42 39 36 33
50 54 61 49 33 25 32 48 53 35 36 63 91 101 89 84 85 87 83 86 85 85 92 98 104 108 107 108 104 98 92 92 95 96 90 85 79 79 76 71 64 58 54 52 47 44 42 39 38
56 52 52 46 37 33 16 40 59 32 30 39 33 73 83 84 86 85 81 79 76 87 92 93 101 105 108 109 108 109 113 113 111 106 96 90 89 85 79 73 65 62 62 55 48 45 44 42 41
60 45 43 31 26 28 40 21 65 15 16 20 20 39 58 75 61 54 59 64 67 68 80 88 92 100 108 112 110 112 112 110 106 105 102 97 95 88 83 79 74 74 65 57 54 50 51 45 43
26 43 19 3 7 24 46 41 51 31 33 37 48 25 22 29 19 10 3 14 19 33 50 71 81 97 104 109 109 111 112 112 110 105 106 103 97 89 85 83 79 73 66 63 57 51 50 47 43
31 15 15 9 14 29 36 26 36 19 25 39 7 12 23 32 27 18 13 10 9 21 29 57 71 85 94 102 103 105 106 107 110 110 107 108 104 98 94 88 86 78 69 65 61 55 53 50 46
24 26 19 17 21 20 33 18 25 38 69 63 29 37 53 51 46 39 28 18 11 9 8 37 57 65 82 90 96 98 99 101 103 105 106 106 106 99 98 95 89 82 79 69 62 57 55 51 47
7 26 40 41 40 12 11 14 19 32 22 22 27 46 45 48 45 42 33 32 25 14 1 13 29 40 60 73 82 88 90 95 99 99 100 102 99 100 100 96 92 89 82 72 66 62 58 53 47
30 28 12 8 9 11 12 15 16 18 20 22 24 23 40 42 41 42 39 34 30 23 15 9 11 21 40 51 63 69 80 84 86 92 96 97 98 97 96 98 97 92 84 76 72 66 62 56 50
39 15 12 16 14 10 6 5 12 17 17 20 21 33 40 43 43 42 39 35 29 23 16 16 17 15 22 28 43 52 63 68 78 81 84 87 91 91 91 94 97 94 88 83 77 72 66 61 54
28 23 24 12 18 17 20 33 15 17 17 18 23 35 41 42 41 42 43 42 41 39 32 17 13 16 17 18 29 40 47 52 64 65 73 79 84 85 83 87 96 95 91 86 83 78 72 65 59
Wind_Direction_500mb
294 289 321 306 253 227 254 260 278 310 326 327 27 318 347 320 311 234 158 179 172 202 189 191 193 195 192 192 194 192 188 185 185 183 181 179 178 175 171 168 166 163 158 157 160 171 170 155 126
292 270 288 255 249 263 268 258 251 218 227 259 26 292 299 284 284 174 144 187 190 197 194 195 194 196 195 194 195 194 193 192 192 191 192 195 195 194 193 191 184 185 180 182 178 174 172 228 275
281 240 261 230 233 249 265 271 296 311 102 9 225 253 279 288 160 105 250 195 199 200 203 201 198 197 199 199 198 194 196 196 197 197 198 206 206 207 210 212 198 190 181 180 190 213 261 279 280
68 238 250 246 256 254 259 266 285 306 127 231 274 274 239 234 264 236 252 223 205 205 217 209 202 201 201 203 202 197 198 198 198 200 194 194 196 197 197 201 203 212 213 219 231 251 264 272 277
230 254 246 240 251 258 262 267 279 285 270 219 206 243 275 264 240 253 259 247 213 208 216 214 204 204 204 204 202 199 200 199 197 197 205 211 206 216 213 212 215 223 228 236 245 254 261 266 266
241 228 234 243 258 256 251 252 249 259 272 273 239 246 236 254 252 254 256 255 208 212 214 222 209 207 206 206 204 204 203 201 200 203 210 216 212 212 215 221 227 232 237 244 249 254 258 258 249
231 242 240 248 262 264 257 280 285 268 266 237 258 244 263 248 241 250 247 251 203 213 215 223 218 208 207 208 205 204 204 204 204 210 212 218 214 219 224 230 235 239 242 246 249 250 249 241 233
233 250 254 255 260 262 267 276 278 279 286 284 249 252 273 267 239 238 243 231 207 206 217 225 221 210 206 206 205 204 202 208 209 209 214 224 223 226 229 232 236 240 242 242 242 232 231 225 222
230 249 238 233 239 263 267 267 273 263 260 274 290 240 257 239 192 212 218 211 206 205 221 219 224 208 206 206 205 203 206 209 208 210 222 223 228 230 229 230 232 237 237 230 220 214 214 220 230
207 232 237 244 259 267 272 278 294 302 289 260 270 241 268 254 250 233 226 213 211 208 224 229 215 213 209 208 211 208 209 211 213 217 226 223 228 230 231 230 231 229 221 217 212 211 212 220 227
217 242 259 271 274 287 285 282 290 288 278 270 268 256 251 248 247 249 247 235 231 218 224 231 211 210 212 209 205 207 210 211 214 223 225 223 229 230 230 227 223 218 217 215 213 217 220 227 234
250 252 260 265 271 282 284 295 286 276 270 266 270 271 270 274 240 236 236 241 229 225 228 233 221 213 215 213 209 212 211 214 218 225 224 221 227 231 228 222 217 215 217 219 216 220 223 221 227
246 253 258 264 270 281 287 274 272 265 265 264 264 264 260 261 267 238 238 238 236 231 227 237 231 223 216 213 212 213 216 220 222 226 225 224 229 230 226 215 215 216 216 220 221 219 216 220 221
275 292 286 273 268 275 270 275 268 260 264 253 253 257 254 251 250 247 238 240 234 235 232 231 236 233 218 216 218 218 221 223 225 226 227 228 230 226 222 215 214 215 217 219 220 219 217 217 221
264 275 276 265 259 246 256 270 248 259 251 247 246 252 252 252 248 246 242 241 246 234 228 225 232 233 222 221 222 220 225 223 221 223 225 226 225 221 217 216 216 215 215 218 220 220 220 220 219
276 262 265 227 233 243 202 257 269 281 253 239 240 249 250 248 247 245 244 244 240 241 227 224 226 229 225 218 214 218 222 223 222 224 226 225 221 216 215 216 216 216 215 216 217 218 218 218 219
228 263 254 264 229 240 188 254 231 249 270 311 234 241 248 251 252 245 242 241 237 237 229 219 223 229 224 221 221 221 221 223 224 225 226 223 218 214 215 216 216 217 214 214 214 216 217 219 220
225 233 243 249 210 231 223 248 249 269 282 277 277 278 271 257 248 245 242 241 244 232 232 219 219 225 225 221 220 220 221 221 223 224 226 222 216 216 215 216 217 217 214 212 214 214 217 216 221
245 263 266 262 247 234 241 249 249 236 249 264 264 256 253 253 253 250 246 241 237 232 225 218 218 221 223 218 217 216 216 218 221 223 225 221 217 217 217 217 218 216 216 214 213 215 213 215 213
247 254 258 267 264 259 271 265 258 246 250 260 264 264 259 254 251 247 240 237 242 240 225 219 218 222 225 223 222 223 221 221 222 220 222 220 219 218 219 219 219 217 213 213 214 215 212 213 210
250 245 251 254 268 266 264 269 266 256 259 256 255 255 255 253 253 250 249 246 239 240 232 221 220 223 225 223 220 217 217 217 214 216 218 218 217 217 217 219 218 219 217 217 218 217 214 212 212
257 254 259 264 265 256 214 261 266 264 248 249 253 246 246 247 248 251 251 249 247 241 241 226 220 218 223 221 220 218 219 215 218 219 219 219 218 218 218 218 218 219 218 216 217 219 217 213 216
262 281 252 259 261 261 250 272 272 196 253 279 288 266 246 240 243 247 251 252 247 242 238 226 220 215 220 223 225 221 219 222 220 218 218 217 217 215 214 214 214 216 216 215 216 215 218 216 215
319 261 247 290 264 242 239 220 262 252 252 253 260 271 63 59 71 63 315 254 227 231 233 222 221 217 219 224 225 224 222 220 218 218 217 217 217 215 214 215 215 216 215 216 216 215 217 218 218
279 267 233 232 220 243 244 244 234 263 235 247 237 79 47 50 60 44 25 20 312 233 225 225 224 218 219 223 225 225 225 222 223 222 220 219 216 214 215 216 217 215 216 217 215 214 215 217 220
236 225 223 226 234 252 236 227 222 250 240 255 62 70 62 52 49 42 30 14 10 278 226 228 226 224 221 224 225 226 225 225 227 228 227 225 223 220 220 217 216 216 216 215 215 214 215 216 218
303 253 268 261 286 294 254 299 229 252 258 70 67 63 56 49 42 37 31 34 28 42 239 224 226 227 221 223 226 224 224 225 226 230 230 229 227 224 222 219 217 218 217 215 215 215 215 216 218
338 285 264 240 246 248 236 256 264 334 47 63 58 58 55 49 42 37 30 30 39 52 74 135 197 230 219 223 226 228 225 225 226 230 231 229 228 225 223 220 219 219 218 216 216 215 216 217 219
320 6 326 297 226 256 272 220 8 46 44 72 61 60 57 55 49 44 38 31 35 41 68 100 121 136 204 220 219 220 220 223 221 224 230 232 230 226 225 222 221 220 219 217 217 217 218 220 221
20 6 360 350 332 310 284 273 67 64 61 67 69 60 56 55 50 46 42 41 41 40 40 56 101 134 147 177 210 213 217 218 216 223 227 229 230 231 228 224 222 221 219 219 219 219 220 222 224
Wind_Speed_850mb
24 19 14 13 6 9 20 22 23 15 8 14 10 14 19 25 10 2 11 20 22 25 29 41 46 49 48 47 43 39 35 32 30 28 25 22 20 18 16 16 16 15 14 13 10 8 8 6 4
19 8 13 12 10 18 17 28 35 19 16 12 2 9 21 13 26 8 12 17 27 26 29 40 47 50 49 47 45 42 39 36 32 29 26 23 21 19 17 16 16 15 13 10 11 9 6 4 4
18 11 9 7 19 29 27 34 30 14 7 8 4 17 16 12 2 7 10 13 28 29 27 41 46 51 50 48 46 45 42 38 33 29 26 23 22 20 20 24 19 17 19 21 18 15 12 14 16
2 9 15 12 35 35 32 22 20 27 2 4 12 13 27 24 7 11 12 15 30 33 33 41 48 53 53 50 45 44 44 40 33 26 27 26 26 28 24 24 22 22 23 22 21 21 21 22 22
13 12 14 19 44 38 37 52 57 40 32 20 27 19 40 20 29 25 25 18 28 36 40 43 50 55 55 53 49 46 46 41 35 35 37 34 34 30 26 25 25 25 26 27 27 26 26 26 23
11 12 14 24 43 37 40 64 52 47 56 41 33 32 37 29 30 30 31 26 31 38 43 45 48 58 58 56 53 48 47 43 41 44 41 39 29 29 29 28 29 30 31 32 31 30 29 24 18
11 15 26 34 41 43 41 50 30 34 35 36 51 27 62 43 45 44 34 33 35 40 45 48 49 58 60 59 54 52 51 50 53 48 43 40 29 32 33 33 33 33 35 34 33 29 25 19 15
17 8 27 29 39 67 40 45 60 51 37 52 38 18 35 43 36 42 36 35 36 43 46 52 50 62 66 64 60 59 55 56 55 52 49 37 33 35 36 36 35 36 35 33 30 22 19 16 13
22 10 23 40 45 59 47 37 60 49 41 43 51 43 42 19 28 39 38 38 41 50 57 59 54 64 72 72 69 65 62 60 59 57 54 40 39 39 39 40 39 37 33 31 26 22 19 16 14
18 16 30 35 38 41 45 34 46 44 40 28 52 42 44 41 28 32 41 47 50 59 65 65 60 64 76 72 72 71 68 66 65 61 56 45 45 43 42 42 37 35 33 30 26 24 21 20 18
25 31 29 36 52 59 52 47 47 36 32 50 36 49 56 62 60 58 57 51 53 60 68 71 69 71 76 80 77 75 74 72 68 66 58 49 50 48 47 40 37 36 34 31 28 25 23 21 19
40 45 43 46 54 56 41 57 42 49 52 61 65 64 66 51 65 70 68 63 56 59 71 76 73 80 82 83 82 79 79 77 75 72 61 56 59 53 47 40 39 38 36 34 29 27 24 21 21
40 35 55 57 62 52 58 45 49 65 64 67 71 76 71 71 58 60 60 60 56 64 70 78 73 81 85 87 84 84 84 82 81 74 65 63 62 54 49 46 44 41 38 35 31 29 25 24 23
31 33 38 47 47 49 46 46 47 60 44 72 86 88 67 69 76 60 52 61 65 65 74 79 78 71 87 92 88 90 89 87 85 78 70 63 60 56 55 50 47 42 39 37 35 31 29 28 24
49 39 36 37 31 30 30 48 56 78 67 75 69 73 74 81 71 75 79 69 75 72 74 79 82 77 80 99 95 92 89 86 82 76 69 62 60 58 58 54 49 46 41 39 37 33 29 27 26
23 28 33 12 37 47 33 62 17 38 44 65 76 84 77 75 69 73 81 81 75 78 81 81 87 85 81 85 96 95 91 89 81 76 70 64 64 62 61 57 52 48 45 40 37 34 33 30 27
25 30 33 35 36 27 30 52 18 38 38 32 56 64 68 70 71 72 78 79 78 78 83 84 91 93 92 92 94 93 92 89 82 77 72 66 67 66 64 59 54 51 46 43 40 37 33 30 27
24 44 35 45 19 32 38 61 36 41 56 50 56 56 54 55 62 61 63 70 76 82 79 88 93 98 94 95 96 93 91 88 82 77 72 68 70 69 65 61 56 52 49 46 42 38 35 31 28
44 40 44 44 22 20 39 49 42 28 42 39 55 64 74 80 86 74 71 75 78 80 84 90 97 101 99 103 107 104 102 95 89 83 78 73 72 72 68 62 60 56 51 47 44 40 35 33 31
45 49 56 57 32 25 40 49 40 29 28 52 61 73 76 78 81 85 90 84 81 85 89 91 102 105 105 108 110 107 104 99 96 90 85 77 74 74 71 68 63 59 55 51 47 42 39 36 33
50 54 61 49 33 25 32 48 53 35 36 63 91 101 89 84 85 87 83 86 85 85 92 98 104 108 107 108 104 98 92 92 95 96 90 85 79 79 76 71 64 58 54 52 47 44 42 39 38
56 52 52 46 37 33 16 40 59 32 30 39 33 73 83 84 86 85 81 79 76 87 92 93 101 105 108 109 108 109 113 113 111 106 96 90 89 85 79 73 65 62 62 55 48 45 44 42 41
60 45 43 31 26 28 40 21 65 15 16 20 20 39 58 75 61 54 59 64 67 68 80 88 92 100 108 112 110 112 112 110 106 105 102 97 95 88 83 79 74 74 65 57 54 50 51 45 43
26 43 19 3 7 24 46 41 51 31 33 37 48 25 22 29 19 10 3 14 19 33 50 71 81 97 104 109 109 111 112 112 110 105 106 103 97 89 85 83 79 73 66 63 57 51 50 47 43
31 15 15 9 14 29 36 26 36 19 25 39 7 12 23 32 27 18 13 10 9 21 29 57 71 85 94 102 103 105 106 107 110 110 107 108 104 98 94 88 86 78 69 65 61 55 53 50 46
24 26 19 17 21 20 33 18 25 38 69 63 29 37 53 51 46 39 28 18 11 9 8 37 57 65 82 90 96 98 99 101 103 105 106 106 106 99 98 95 89 82 79 69 62 57 55 51 47
7 26 40 41 40 12 11 14 19 32 22 22 27 46 45 48 45 42 33 32 25 14 1 13 29 40 60 73 82 88 90 95 99 99 100 102 99 100 100 96 92 89 82 72 66 62 58 53 47
30 28 12 8 9 11 12 15 16 18 20 22 24 23 40 42 41 42 39 34 30 23 15 9 11 21 40 51 63 69 80 84 86 92 96 97 98 97 96 98 97 92 84 76 72 66 62 56 50
39 15 12 16 14 10 6 5 12 17 17 20 21 33 40 43 43 42 39 35 29 23 16 16 17 15 22 28 43 52 63 68 78 81 84 87 91 91 91 94 97 94 88 83 77 72 66 61 54
28 23 24 12 18 17 20 33 15 17 17 18 23 35 41 42 41 42 43 42 41 39 32 17 13 16 17 18 29 40 47 52 64 65 73 79 84 85 83 87 96 95 91 86 83 78 72 65 59
Wind_Direction_850mb
294 289 321 306 253 227 254 260 278 310 326 327 27 318 347 320 311 234 158 179 172 202 189 191 193 195 192 192 194 192 188 185 185 183 181 179 178 175 171 168 166 163 158 157 160 171 170 155 126
292 270 288 255 249 263 268 258 251 218 227 259 26 292 299 284 284 174 144 187 190 197 194 195 194 196 195 194 195 194 193 192 192 191 192 195 195 194 193 191 184 185 180 182 178 174 172 228 275
281 240 261 230 233 249 265 271 296 311 102 9 225 253 279 288 160 105 250 195 199 200 203 201 198 197 199 199 198 194 196 196 197 197 198 206 206 207 210 212 198 190 181 180 190 213 261 279 280
68 238 250 246 256 254 259 266 285 306 127 231 274 274 239 234 264 236 252 223 205 205 217 209 202 201 201 203 202 197 198 198 198 200 194 194 196 197 197 201 203 212 213 219 231 251 264 272 277
230 254 246 240 251 258 262 267 279 285 270 219 206 243 275 264 240 253 259 247 213 208 216 214 204 204 204 204 202 199 200 199 197 197 205 211 206 216 213 212 215 223 228 236 245 254 261 266 266
241 228 234 243 258 256 251 252 249 259 272 273 239 246 236 254 252 254 256 255 208 212 214 222 209 207 206 206 204 204 203 201 200 203 210 216 212 212 215 221 227 232 237 244 249 254 258 258 249
231 242 240 248 262 264 257 280 285 268 266 237 258 244 263 248 241 250 247 251 203 213 215 223 218 208 207 208 205 204 204 204 204 210 212 218 214 219 224 230 235 239 242 246 249 250 249 241 233
233 250 254 255 260 262 267 276 278 279 286 284 249 252 273 267 239 238 243 231 207 206 217 225 221 210 206 206 205 204 202 208 209 209 214 224 223 226 229 232 236 240 242 242 242 232 231 225 222
230 249 238 233 239 263 267 267 273 263 260 274 290 240 257 239 192 212 218 211 206 205 221 219 224 208 206 206 205 203 206 209 208 210 222 223 228 230 229 230 232 237 237 230 220 214 214 220 230
207 232 237 244 259 267 272 278 294 302 289 260 270 241 268 254 250 233 226 213 211 208 224 229 215 213 209 208 211 208 209 211 213 217 226 223 228 230 231 230 231 229 221 217 212 211 212 220 227
217 242 259 271 274 287 285 282 290 288 278 270 268 256 251 248 247 249 247 235 231 218 224 231 211 210 212 209 205 207 210 211 214 223 225 223 229 230 230 227 223 218 217 215 213 217 220 227 234
250 252 260 265 271 282 284 295 286 276 270 266 270 271 270 274 240 236 236 241 229 225 228 233 221 213 215 213 209 212 211 214 218 225 224 221 227 231 228 222 217 215 217 219 216 220 223 221 227
246 253 258 264 270 281 287 274 272 265 265 264 264 264 260 261 267 238 238 238 236 231 227 237 231 223 216 213 212 213 216 220 222 226 225 224 229 230 226 215 215 216 216 220 221 219 216 220 221
275 292 286 273 268 275 270 275 268 260 264 253 253 257 254 251 250 247 238 240 234 235 232 231 236 233 218 216 218 218 221 223 225 226 227 228 230 226 222 215 214 215 217 219 220 219 217 217 221
264 275 276 265 259 246 256 270 248 259 251 247 246 252 252 252 248 246 242 241 246 234 228 225 232 233 222 221 222 220 225 223 221 223 225 226 225 221 217 216 216 215 215 218 220 220 220 220 219
276 262 265 227 233 243 202 257 269 281 253 239 240 249 250 248 247 245 244 244 240 241 227 224 226 229 225 218 214 218 222 223 222 224 226 225 221 216 215 216 216 216 215 216 217 218 218 218 219
228 263 254 264 229 240 188 254 231 249 270 311 234 241 248 251 252 245 242 241 237 237 229 219 223 229 224 221 221 221 221 223 224 225 226 223 218 214 215 216 216 217 214 214 214 216 217 219 220
225 233 243 249 210 231 223 248 249 269 282 277 277 278 271 257 248 245 242 241 244 232 232 219 219 225 225 221 220 220 221 221 223 224 226 222 216 216 215 216 217 217 214 212 214 214 217 216 221
245 263 266 262 247 234 241 249 249 236 249 264 264 256 253 253 253 250 246 241 237 232 225 218 218 221 223 218 217 216 216 218 221 223 225 221 217 217 217 217 218 216 216 214 213 215 213 215 213
247 254 258 267 264 259 271 265 258 246 250 260 264 264 259 254 251 247 240 237 242 240 225 219 218 222 225 223 222 223 221 221 222 220 222 220 219 218 219 219 219 217 213 213 214 215 212 213 210
250 245 251 254 268 266 264 269 266 256 259 256 255 255 255 253 253 250 249 246 239 240 232 221 220 223 225 223 220 217 217 217 214 216 218 218 217 217 217 219 218 219 217 217 218 217 214 212 212
257 254 259 264 265 256 214 261 266 264 248 249 253 246 246 247 248 251 251 249 247 241 241 226 220 218 223 221 220 218 219 215 218 219 219 219 218 218 218 218 218 219 218 216 217 219 217 213 216
262 281 252 259 261 261 250 272 272 196 253 279 288 266 246 240 243 247 251 252 247 242 238 226 220 215 220 223 225 221 219 222 220 218 218 217 217 215 214 214 214 216 216 215 216 215 218 216 215
319 261 247 290 264 242 239 220 262 252 252 253 260 271 63 59 71 63 315 254 227 231 233 222 221 217 219 224 225 224 222 220 218 218 217 217 217 215 214 215 215 216 215 216 216 215 217 218 218
279 267 233 232 220 243 244 244 234 263 235 247 237 79 47 50 60 44 25 20 312 233 225 225 224 218 219 223 225 225 225 222 223 222 220 219 216 214 215 216 217 215 216 217 215 214 215 217 220
236 225 223 226 234 252 236 227 222 250 240 255 62 70 62 52 49 42 30 14 10 278 226 228 226 224 221 224 225 226 225 225 227 228 227 225 223 220 220 217 216 216 216 215 215 214 215 216 218
303 253 268 261 286 294 254 299 229 252 258 70 67 63 56 49 42 37 31 34 28 42 239 224 226 227 221 223 226 224 224 225 226 230 230 229 227 224 222 219 217 218 217 215 215 215 215 216 218
338 285 264 240 246 248 236 256 264 334 47 63 58 58 55 49 42 37 30 30 39 52 74 135 197 230 219 223 226 228 225 225 226 230 231 229 228 225 223 220 219 219 218 216 216 215 216 217 219
320 6 326 297 226 256 272 220 8 46 44 72 61 60 57 55 49 44 38 31 35 41 68 100 121 136 204 220 219 220 220 223 221 224 230 232 230 226 225 222 221 220 219 217 217 217 218 220 221
20 6 360 350 332 310 284 273 67 64 61 67 69 60 56 55 50 46 42 41 41 40 40 56 101 134 147 177 210 213 217 218 216 223 227 229 230 231 228 224 222 221 219 219 219 219 220 222 224